Year,Month,Day,Hour,Minute,Value (Times are PST for temperature in C)
2019,07,26,00,00,16.30
2019,07,26,00,01,16.30
2019,07,26,00,02,16.30
2019,07,26,00,03,16.30
2019,07,26,00,04,16.30
2019,07,26,00,05,16.30
2019,07,26,00,06,16.30
2019,07,26,00,07,16.30
2019,07,26,00,08,16.30
2019,07,26,00,09,16.30
2019,07,26,00,10,16.30
2019,07,26,00,11,16.30
2019,07,26,00,12,16.30
2019,07,26,00,13,16.30
2019,07,26,00,14,16.30
2019,07,26,00,15,16.30
2019,07,26,00,16,16.30
2019,07,26,00,17,16.30
2019,07,26,00,18,16.30
2019,07,26,00,19,16.30
2019,07,26,00,20,16.30
2019,07,26,00,21,16.30
2019,07,26,00,22,16.20
2019,07,26,00,23,16.20
2019,07,26,00,24,16.20
2019,07,26,00,25,16.20
2019,07,26,00,26,16.10
2019,07,26,00,27,16.10
2019,07,26,00,28,16.10
2019,07,26,00,29,16.10
2019,07,26,00,30,16.10
2019,07,26,00,31,16.10
2019,07,26,00,32,16.10
2019,07,26,00,33,16.10
2019,07,26,00,34,16.10
2019,07,26,00,35,16.10
2019,07,26,00,36,16.10
2019,07,26,00,37,16.10
2019,07,26,00,38,16.10
2019,07,26,00,39,16.10
2019,07,26,00,40,16.00
2019,07,26,00,41,15.90
2019,07,26,00,42,15.90
2019,07,26,00,43,15.90
2019,07,26,00,44,15.90
2019,07,26,00,45,15.90
2019,07,26,00,46,15.90
2019,07,26,00,47,15.90
2019,07,26,00,48,15.80
2019,07,26,00,49,15.80
2019,07,26,00,50,15.80
2019,07,26,00,51,15.80
2019,07,26,00,52,15.80
2019,07,26,00,53,15.80
2019,07,26,00,54,15.80
2019,07,26,00,55,15.80
2019,07,26,00,56,15.80
2019,07,26,00,57,15.80
2019,07,26,00,58,15.80
2019,07,26,00,59,15.70
2019,07,26,01,00,15.70
2019,07,26,01,01,15.70
2019,07,26,01,02,15.70
2019,07,26,01,03,15.70
2019,07,26,01,04,15.70
2019,07,26,01,05,15.70
2019,07,26,01,06,15.70
2019,07,26,01,07,15.70
2019,07,26,01,08,15.70
2019,07,26,01,09,15.70
2019,07,26,01,10,15.60
2019,07,26,01,11,15.60
2019,07,26,01,12,15.60
2019,07,26,01,13,15.60
2019,07,26,01,14,15.50
2019,07,26,01,15,15.50
2019,07,26,01,16,15.50
2019,07,26,01,17,15.50
2019,07,26,01,18,15.50
2019,07,26,01,19,15.50
2019,07,26,01,20,15.50
2019,07,26,01,21,15.50
2019,07,26,01,22,15.50
2019,07,26,01,23,15.50
2019,07,26,01,24,15.40
2019,07,26,01,25,15.40
2019,07,26,01,26,15.40
2019,07,26,01,27,15.40
2019,07,26,01,28,15.40
2019,07,26,01,29,15.30
2019,07,26,01,30,15.30
2019,07,26,01,31,15.30
2019,07,26,01,32,15.30
2019,07,26,01,33,15.30
2019,07,26,01,34,15.30
2019,07,26,01,35,15.30
2019,07,26,01,36,15.30
2019,07,26,01,37,15.30
2019,07,26,01,38,15.30
2019,07,26,01,39,15.30
2019,07,26,01,40,15.20
2019,07,26,01,41,15.20
2019,07,26,01,42,15.20
2019,07,26,01,43,15.20
2019,07,26,01,44,15.10
2019,07,26,01,45,15.10
2019,07,26,01,46,15.10
2019,07,26,01,47,15.10
2019,07,26,01,48,15.00
2019,07,26,01,49,15.00
2019,07,26,01,50,15.00
2019,07,26,01,51,15.00
2019,07,26,01,52,15.00
2019,07,26,01,53,15.00
2019,07,26,01,54,14.90
2019,07,26,01,55,14.90
2019,07,26,01,56,14.90
2019,07,26,01,57,14.90
2019,07,26,01,58,14.90
2019,07,26,01,59,14.90
2019,07,26,02,00,14.90
2019,07,26,02,01,14.90
2019,07,26,02,02,14.90
2019,07,26,02,03,14.90
2019,07,26,02,04,14.90
2019,07,26,02,05,14.90
2019,07,26,02,06,14.90
2019,07,26,02,07,14.90
2019,07,26,02,08,14.90
2019,07,26,02,09,14.90
2019,07,26,02,10,14.90
2019,07,26,02,11,14.90
2019,07,26,02,12,14.90
2019,07,26,02,13,14.90
2019,07,26,02,14,14.90
2019,07,26,02,15,14.90
2019,07,26,02,16,14.90
2019,07,26,02,17,14.90
2019,07,26,02,18,14.90
2019,07,26,02,19,14.90
2019,07,26,02,20,14.90
2019,07,26,02,21,14.90
2019,07,26,02,22,14.90
2019,07,26,02,23,14.90
2019,07,26,02,24,14.90
2019,07,26,02,25,14.90
2019,07,26,02,26,14.90
2019,07,26,02,27,14.90
2019,07,26,02,28,14.90
2019,07,26,02,29,14.90
2019,07,26,02,30,14.90
2019,07,26,02,31,14.80
2019,07,26,02,32,14.80
2019,07,26,02,33,14.80
2019,07,26,02,34,14.80
2019,07,26,02,35,14.80
2019,07,26,02,36,14.80
2019,07,26,02,37,14.80
2019,07,26,02,38,14.80
2019,07,26,02,39,14.80
2019,07,26,02,40,14.80
2019,07,26,02,41,14.80
2019,07,26,02,42,14.80
2019,07,26,02,43,14.80
2019,07,26,02,44,14.80
2019,07,26,02,45,14.80
2019,07,26,02,46,14.80
2019,07,26,02,47,14.80
2019,07,26,02,48,14.80
2019,07,26,02,49,14.80
2019,07,26,02,50,14.80
2019,07,26,02,51,14.80
2019,07,26,02,52,14.80
2019,07,26,02,53,14.80
2019,07,26,02,54,14.80
2019,07,26,02,55,14.80
2019,07,26,02,56,14.80
2019,07,26,02,57,14.80
2019,07,26,02,58,14.80
2019,07,26,02,59,14.80
2019,07,26,03,00,14.80
2019,07,26,03,01,14.80
2019,07,26,03,02,14.80
2019,07,26,03,03,14.80
2019,07,26,03,04,14.80
2019,07,26,03,05,14.80
2019,07,26,03,06,14.70
2019,07,26,03,07,14.70
2019,07,26,03,08,14.70
2019,07,26,03,09,14.70
2019,07,26,03,10,14.70
2019,07,26,03,11,14.70
2019,07,26,03,12,14.70
2019,07,26,03,13,14.70
2019,07,26,03,14,14.70
2019,07,26,03,15,14.70
2019,07,26,03,16,14.70
2019,07,26,03,17,14.70
2019,07,26,03,18,14.70
2019,07,26,03,19,14.60
2019,07,26,03,20,14.60
2019,07,26,03,21,14.60
2019,07,26,03,22,14.60
2019,07,26,03,23,14.60
2019,07,26,03,24,14.60
2019,07,26,03,25,14.60
2019,07,26,03,26,14.60
2019,07,26,03,27,14.60
2019,07,26,03,28,14.60
2019,07,26,03,29,14.60
2019,07,26,03,30,14.60
2019,07,26,03,31,14.60
2019,07,26,03,32,14.60
2019,07,26,03,33,14.60
2019,07,26,03,34,14.60
2019,07,26,03,35,14.60
2019,07,26,03,36,14.60
2019,07,26,03,37,14.60
2019,07,26,03,38,14.60
2019,07,26,03,39,14.60
2019,07,26,03,40,14.60
2019,07,26,03,41,14.60
2019,07,26,03,42,14.60
2019,07,26,03,43,14.60
2019,07,26,03,44,14.60
2019,07,26,03,45,14.60
2019,07,26,03,46,14.60
2019,07,26,03,47,14.60
2019,07,26,03,48,14.60
2019,07,26,03,49,14.60
2019,07,26,03,50,14.60
2019,07,26,03,51,14.60
2019,07,26,03,52,14.60
2019,07,26,03,53,14.50
2019,07,26,03,54,14.50
2019,07,26,03,55,14.50
2019,07,26,03,56,14.50
2019,07,26,03,57,14.50
2019,07,26,03,58,14.50
2019,07,26,03,59,14.50
2019,07,26,04,00,14.50
2019,07,26,04,01,14.50
2019,07,26,04,02,14.50
2019,07,26,04,03,14.50
2019,07,26,04,04,14.50
2019,07,26,04,05,14.50
2019,07,26,04,06,14.50
2019,07,26,04,07,14.50
2019,07,26,04,08,14.50
2019,07,26,04,09,14.50
2019,07,26,04,10,14.50
2019,07,26,04,11,14.50
2019,07,26,04,12,14.50
2019,07,26,04,13,14.50
2019,07,26,04,14,14.50
2019,07,26,04,15,14.50
2019,07,26,04,16,14.50
2019,07,26,04,17,14.50
2019,07,26,04,18,14.50
2019,07,26,04,19,14.50
2019,07,26,04,20,14.50
2019,07,26,04,21,14.50
2019,07,26,04,22,14.50
2019,07,26,04,23,14.50
2019,07,26,04,24,14.50
2019,07,26,04,25,14.50
2019,07,26,04,26,14.50
2019,07,26,04,27,14.50
2019,07,26,04,28,14.50
2019,07,26,04,29,14.50
2019,07,26,04,30,14.50
2019,07,26,04,31,14.50
2019,07,26,04,32,14.50
2019,07,26,04,33,14.50
2019,07,26,04,34,14.50
2019,07,26,04,35,14.50
2019,07,26,04,36,14.50
2019,07,26,04,37,14.50
2019,07,26,04,38,14.50
2019,07,26,04,39,14.50
2019,07,26,04,40,14.50
2019,07,26,04,41,14.50
2019,07,26,04,42,14.50
2019,07,26,04,43,14.50
2019,07,26,04,44,14.50
2019,07,26,04,45,14.50
2019,07,26,04,46,14.50
2019,07,26,04,47,14.50
2019,07,26,04,48,14.50
2019,07,26,04,49,14.50
2019,07,26,04,50,14.50
2019,07,26,04,51,14.50
2019,07,26,04,52,14.50
2019,07,26,04,53,14.50
2019,07,26,04,54,14.50
2019,07,26,04,55,14.50
2019,07,26,04,56,14.50
2019,07,26,04,57,14.50
2019,07,26,04,58,14.50
2019,07,26,04,59,14.50
2019,07,26,05,00,14.50
2019,07,26,05,01,14.50
2019,07,26,05,02,14.50
2019,07,26,05,03,14.50
2019,07,26,05,04,14.50
2019,07,26,05,05,14.50
2019,07,26,05,06,14.50
2019,07,26,05,07,14.50
2019,07,26,05,08,14.50
2019,07,26,05,09,14.50
2019,07,26,05,10,14.50
2019,07,26,05,11,14.50
2019,07,26,05,12,14.50
2019,07,26,05,13,14.50
2019,07,26,05,14,14.50
2019,07,26,05,15,14.60
2019,07,26,05,16,14.60
2019,07,26,05,17,14.60
2019,07,26,05,18,14.60
2019,07,26,05,19,14.60
2019,07,26,05,20,14.60
2019,07,26,05,21,14.60
2019,07,26,05,22,14.60
2019,07,26,05,23,14.60
2019,07,26,05,24,14.60
2019,07,26,05,25,14.60
2019,07,26,05,26,14.60
2019,07,26,05,27,14.60
2019,07,26,05,28,14.60
2019,07,26,05,29,14.60
2019,07,26,05,30,14.60
2019,07,26,05,31,14.60
2019,07,26,05,32,14.60
2019,07,26,05,33,14.60
2019,07,26,05,34,14.60
2019,07,26,05,35,14.60
2019,07,26,05,36,14.60
2019,07,26,05,37,14.60
2019,07,26,05,38,14.60
2019,07,26,05,39,14.60
2019,07,26,05,40,14.50
2019,07,26,05,41,14.50
2019,07,26,05,42,14.50
2019,07,26,05,43,14.50
2019,07,26,05,44,14.50
2019,07,26,05,45,14.50
2019,07,26,05,46,14.50
2019,07,26,05,47,14.40
2019,07,26,05,48,14.40
2019,07,26,05,49,14.40
2019,07,26,05,50,14.40
2019,07,26,05,51,14.40
2019,07,26,05,52,14.40
2019,07,26,05,53,14.30
2019,07,26,05,54,14.30
2019,07,26,05,55,14.30
2019,07,26,05,56,14.30
2019,07,26,05,57,14.30
2019,07,26,05,58,14.30
2019,07,26,05,59,14.30
2019,07,26,06,00,14.30
2019,07,26,06,01,14.30
2019,07,26,06,02,14.30
2019,07,26,06,03,14.30
2019,07,26,06,04,14.30
2019,07,26,06,05,14.30
2019,07,26,06,06,14.30
2019,07,26,06,07,14.30
2019,07,26,06,08,14.30
2019,07,26,06,09,14.30
2019,07,26,06,10,14.30
2019,07,26,06,11,14.30
2019,07,26,06,12,14.30
2019,07,26,06,13,14.30
2019,07,26,06,14,14.30
2019,07,26,06,15,14.30
2019,07,26,06,16,14.30
2019,07,26,06,17,14.30
2019,07,26,06,18,14.30
2019,07,26,06,19,14.30
2019,07,26,06,20,14.30
2019,07,26,06,21,14.40
2019,07,26,06,22,14.40
2019,07,26,06,23,14.40
2019,07,26,06,24,14.40
2019,07,26,06,25,14.40
2019,07,26,06,26,14.40
2019,07,26,06,27,14.40
2019,07,26,06,28,14.40
2019,07,26,06,29,14.50
2019,07,26,06,30,14.50
2019,07,26,06,31,14.50
2019,07,26,06,32,14.50
2019,07,26,06,33,14.50
2019,07,26,06,34,14.50
2019,07,26,06,35,14.50
2019,07,26,06,36,14.50
2019,07,26,06,37,14.50
2019,07,26,06,38,14.50
2019,07,26,06,39,14.50
2019,07,26,06,40,14.50
2019,07,26,06,41,14.60
2019,07,26,06,42,14.60
2019,07,26,06,43,14.60
2019,07,26,06,44,14.60
2019,07,26,06,45,14.60
2019,07,26,06,46,14.60
2019,07,26,06,47,14.70
2019,07,26,06,48,14.70
2019,07,26,06,49,14.70
2019,07,26,06,50,14.80
2019,07,26,06,51,14.80
2019,07,26,06,52,14.80
2019,07,26,06,53,14.80
2019,07,26,06,54,14.80
2019,07,26,06,55,14.80
2019,07,26,06,56,14.80
2019,07,26,06,57,14.80
2019,07,26,06,58,14.80
2019,07,26,06,59,14.80
2019,07,26,07,00,14.80
2019,07,26,07,01,14.80
2019,07,26,07,02,14.80
2019,07,26,07,03,14.80
2019,07,26,07,04,14.90
2019,07,26,07,05,14.90
2019,07,26,07,06,14.90
2019,07,26,07,07,15.00
2019,07,26,07,08,15.00
2019,07,26,07,09,15.10
2019,07,26,07,10,15.10
2019,07,26,07,11,15.20
2019,07,26,07,12,15.30
2019,07,26,07,13,15.40
2019,07,26,07,14,15.50
2019,07,26,07,15,15.60
2019,07,26,07,16,15.70
2019,07,26,07,17,15.80
2019,07,26,07,18,16.00
2019,07,26,07,19,16.10
2019,07,26,07,20,16.10
2019,07,26,07,21,16.20
2019,07,26,07,22,16.30
2019,07,26,07,23,16.40
2019,07,26,07,24,16.40
2019,07,26,07,25,16.40
2019,07,26,07,26,16.40
2019,07,26,07,27,16.60
2019,07,26,07,28,16.60
2019,07,26,07,29,16.60
2019,07,26,07,30,16.50
2019,07,26,07,31,16.40
2019,07,26,07,32,16.40
2019,07,26,07,33,16.40
2019,07,26,07,34,16.40
2019,07,26,07,35,16.30
2019,07,26,07,36,16.30
2019,07,26,07,37,16.30
2019,07,26,07,38,16.30
2019,07,26,07,39,16.30
2019,07,26,07,40,16.30
2019,07,26,07,41,16.20
2019,07,26,07,42,16.20
2019,07,26,07,43,16.20
2019,07,26,07,44,16.20
2019,07,26,07,45,16.20
2019,07,26,07,46,16.20
2019,07,26,07,47,16.20
2019,07,26,07,48,16.30
2019,07,26,07,49,16.30
2019,07,26,07,50,16.30
2019,07,26,07,51,16.40
2019,07,26,07,52,16.40
2019,07,26,07,53,16.40
2019,07,26,07,54,16.40
2019,07,26,07,55,16.40
2019,07,26,07,56,16.40
2019,07,26,07,57,16.40
2019,07,26,07,58,16.30
2019,07,26,07,59,16.30
2019,07,26,08,00,16.20
2019,07,26,08,01,16.10
2019,07,26,08,02,16.10
2019,07,26,08,03,16.00
2019,07,26,08,04,15.90
2019,07,26,08,05,15.90
2019,07,26,08,06,15.80
2019,07,26,08,07,15.70
2019,07,26,08,08,15.60
2019,07,26,08,09,15.60
2019,07,26,08,10,15.60
2019,07,26,08,11,15.60
2019,07,26,08,12,15.70
2019,07,26,08,13,15.70
2019,07,26,08,14,15.80
2019,07,26,08,15,15.90
2019,07,26,08,16,15.90
2019,07,26,08,17,16.10
2019,07,26,08,18,16.10
2019,07,26,08,19,16.10
2019,07,26,08,20,16.20
2019,07,26,08,21,16.30
2019,07,26,08,22,16.40
2019,07,26,08,23,16.50
2019,07,26,08,24,16.60
2019,07,26,08,25,16.50
2019,07,26,08,26,16.40
2019,07,26,08,27,16.40
2019,07,26,08,28,16.40
2019,07,26,08,29,16.40
2019,07,26,08,30,16.40
2019,07,26,08,31,16.50
2019,07,26,08,32,16.70
2019,07,26,08,33,16.80
2019,07,26,08,34,16.90
2019,07,26,08,35,17.00
2019,07,26,08,36,17.00
2019,07,26,08,37,17.00
2019,07,26,08,38,17.10
2019,07,26,08,39,17.10
2019,07,26,08,40,17.10
2019,07,26,08,41,17.20
2019,07,26,08,42,17.20
2019,07,26,08,43,17.20
2019,07,26,08,44,17.30
2019,07,26,08,45,17.40
2019,07,26,08,46,17.50
2019,07,26,08,47,17.60
2019,07,26,08,48,17.70
2019,07,26,08,49,17.80
2019,07,26,08,50,17.90
2019,07,26,08,51,17.90
2019,07,26,08,52,17.90
2019,07,26,08,53,17.90
2019,07,26,08,54,17.80
2019,07,26,08,55,17.90
2019,07,26,08,56,17.80
2019,07,26,08,57,17.80
2019,07,26,08,58,17.70
2019,07,26,08,59,17.70
2019,07,26,09,00,17.50
2019,07,26,09,01,17.40
2019,07,26,09,02,17.40
2019,07,26,09,03,17.30
2019,07,26,09,04,17.30
2019,07,26,09,05,17.40
2019,07,26,09,06,17.40
2019,07,26,09,07,17.50
2019,07,26,09,08,17.50
2019,07,26,09,09,17.70
2019,07,26,09,10,17.80
2019,07,26,09,11,17.90
2019,07,26,09,12,17.90
2019,07,26,09,13,17.90
2019,07,26,09,14,17.90
2019,07,26,09,15,17.80
2019,07,26,09,16,17.80
2019,07,26,09,17,17.70
2019,07,26,09,18,17.70
2019,07,26,09,19,17.80
2019,07,26,09,20,17.90
2019,07,26,09,21,17.90
2019,07,26,09,22,18.00
2019,07,26,09,23,18.20
2019,07,26,09,24,18.20
2019,07,26,09,25,18.30
2019,07,26,09,26,18.40
2019,07,26,09,27,18.50
2019,07,26,09,28,18.40
2019,07,26,09,29,18.20
2019,07,26,09,30,18.10
2019,07,26,09,31,18.00
2019,07,26,09,32,17.90
2019,07,26,09,33,17.90
2019,07,26,09,34,17.80
2019,07,26,09,35,17.80
2019,07,26,09,36,17.80
2019,07,26,09,37,17.80
2019,07,26,09,38,17.80
2019,07,26,09,39,17.90
2019,07,26,09,40,17.90
2019,07,26,09,41,17.90
2019,07,26,09,42,17.90
2019,07,26,09,43,17.90
2019,07,26,09,44,17.90
2019,07,26,09,45,17.80
2019,07,26,09,46,17.80
2019,07,26,09,47,17.90
2019,07,26,09,48,17.90
2019,07,26,09,49,17.90
2019,07,26,09,50,17.80
2019,07,26,09,51,17.90
2019,07,26,09,52,17.90
2019,07,26,09,53,17.90
2019,07,26,09,54,17.90
2019,07,26,09,55,18.10
2019,07,26,09,56,18.10
2019,07,26,09,57,18.10
2019,07,26,09,58,17.90
2019,07,26,09,59,17.90
2019,07,26,10,00,17.90
2019,07,26,10,01,17.70
2019,07,26,10,02,17.60
2019,07,26,10,03,17.60
2019,07,26,10,04,17.50
2019,07,26,10,05,17.50
2019,07,26,10,06,17.50
2019,07,26,10,07,17.60
2019,07,26,10,08,17.80
2019,07,26,10,09,18.00
2019,07,26,10,10,18.20
2019,07,26,10,11,18.40
2019,07,26,10,12,18.60
2019,07,26,10,13,18.70
2019,07,26,10,14,18.90
2019,07,26,10,15,18.90
2019,07,26,10,16,18.90
2019,07,26,10,17,18.90
2019,07,26,10,18,18.90
2019,07,26,10,19,18.90
2019,07,26,10,20,18.90
2019,07,26,10,21,18.90
2019,07,26,10,22,18.90
2019,07,26,10,23,18.90
2019,07,26,10,24,18.90
2019,07,26,10,25,18.90
2019,07,26,10,26,19.00
2019,07,26,10,27,19.10
2019,07,26,10,28,19.10
2019,07,26,10,29,19.30
2019,07,26,10,30,19.40
2019,07,26,10,31,19.60
2019,07,26,10,32,19.60
2019,07,26,10,33,19.60
2019,07,26,10,34,19.60
2019,07,26,10,35,19.50
2019,07,26,10,36,19.40
2019,07,26,10,37,19.30
2019,07,26,10,38,19.30
2019,07,26,10,39,19.40
2019,07,26,10,40,19.40
2019,07,26,10,41,19.40
2019,07,26,10,42,19.30
2019,07,26,10,43,19.20
2019,07,26,10,44,19.30
2019,07,26,10,45,19.40
2019,07,26,10,46,19.50
2019,07,26,10,47,19.40
2019,07,26,10,48,19.40
2019,07,26,10,49,19.40
2019,07,26,10,50,19.40
2019,07,26,10,51,19.30
2019,07,26,10,52,19.30
2019,07,26,10,53,19.30
2019,07,26,10,54,19.30
2019,07,26,10,55,19.40
2019,07,26,10,56,19.50
2019,07,26,10,57,19.60
2019,07,26,10,58,19.70
2019,07,26,10,59,19.80
2019,07,26,11,00,19.80
2019,07,26,11,01,19.80
2019,07,26,11,02,19.80
2019,07,26,11,03,19.70
2019,07,26,11,04,19.70
2019,07,26,11,05,19.60
2019,07,26,11,06,19.70
2019,07,26,11,07,19.80
2019,07,26,11,08,19.80
2019,07,26,11,09,19.90
2019,07,26,11,10,19.90
2019,07,26,11,11,19.90
2019,07,26,11,12,20.10
2019,07,26,11,13,20.20
2019,07,26,11,14,20.40
2019,07,26,11,15,20.60
2019,07,26,11,16,20.60
2019,07,26,11,17,20.50
2019,07,26,11,18,20.40
2019,07,26,11,19,20.20
2019,07,26,11,20,20.20
2019,07,26,11,21,20.20
2019,07,26,11,22,20.20
2019,07,26,11,23,20.20
2019,07,26,11,24,20.20
2019,07,26,11,25,20.30
2019,07,26,11,26,20.30
2019,07,26,11,27,20.40
2019,07,26,11,28,20.40
2019,07,26,11,29,20.30
2019,07,26,11,30,20.20
2019,07,26,11,31,20.20
2019,07,26,11,32,20.30
2019,07,26,11,33,20.40
2019,07,26,11,34,20.60
2019,07,26,11,35,20.70
2019,07,26,11,36,20.70
2019,07,26,11,37,20.80
2019,07,26,11,38,20.90
2019,07,26,11,39,20.90
2019,07,26,11,40,20.80
2019,07,26,11,41,20.80
2019,07,26,11,42,20.70
2019,07,26,11,43,20.60
2019,07,26,11,44,20.60
2019,07,26,11,45,20.60
2019,07,26,11,46,20.70
2019,07,26,11,47,20.70
2019,07,26,11,48,20.80
2019,07,26,11,49,20.90
2019,07,26,11,50,20.80
2019,07,26,11,51,20.80
2019,07,26,11,52,20.70
2019,07,26,11,53,20.70
2019,07,26,11,54,20.70
2019,07,26,11,55,20.70
2019,07,26,11,56,20.70
2019,07,26,11,57,20.60
2019,07,26,11,58,20.60
2019,07,26,11,59,20.40
2019,07,26,12,00,20.30
2019,07,26,12,01,20.20
2019,07,26,12,02,20.10
2019,07,26,12,03,19.90
2019,07,26,12,04,19.80
2019,07,26,12,05,19.80
2019,07,26,12,06,19.70
2019,07,26,12,07,19.60
2019,07,26,12,08,19.50
2019,07,26,12,09,19.40
2019,07,26,12,10,19.20
2019,07,26,12,11,19.20
2019,07,26,12,12,19.10
2019,07,26,12,13,18.90
2019,07,26,12,14,18.80
2019,07,26,12,15,18.70
2019,07,26,12,16,18.70
2019,07,26,12,17,18.60
2019,07,26,12,18,18.40
2019,07,26,12,19,18.30
2019,07,26,12,20,18.40
2019,07,26,12,21,18.30
2019,07,26,12,22,18.20
2019,07,26,12,23,18.20
2019,07,26,12,24,18.10
2019,07,26,12,25,18.00
2019,07,26,12,26,17.90
2019,07,26,12,27,17.80
2019,07,26,12,28,17.90
2019,07,26,12,29,17.90
2019,07,26,12,30,17.80
2019,07,26,12,31,17.70
2019,07,26,12,32,17.70
2019,07,26,12,33,17.70
2019,07,26,12,34,17.90
2019,07,26,12,35,18.20
2019,07,26,12,36,18.30
2019,07,26,12,37,18.40
2019,07,26,12,38,18.50
2019,07,26,12,39,18.50
2019,07,26,12,40,18.50
2019,07,26,12,41,18.30
2019,07,26,12,42,18.20
2019,07,26,12,43,18.20
2019,07,26,12,44,18.20
2019,07,26,12,45,18.20
2019,07,26,12,46,18.20
2019,07,26,12,47,18.20
2019,07,26,12,48,18.20
2019,07,26,12,49,18.20
2019,07,26,12,50,18.30
2019,07,26,12,51,18.30
2019,07,26,12,52,18.30
2019,07,26,12,53,18.40
2019,07,26,12,54,18.50
2019,07,26,12,55,18.50
2019,07,26,12,56,18.60
2019,07,26,12,57,18.70
2019,07,26,12,58,18.80
2019,07,26,12,59,18.90
2019,07,26,13,00,18.90
2019,07,26,13,01,19.10
2019,07,26,13,02,19.20
2019,07,26,13,03,19.20
2019,07,26,13,04,19.10
2019,07,26,13,05,19.00
2019,07,26,13,06,18.90
2019,07,26,13,07,18.70
2019,07,26,13,08,18.60
2019,07,26,13,09,18.60
2019,07,26,13,10,18.70
2019,07,26,13,11,18.70
2019,07,26,13,12,18.90
2019,07,26,13,13,18.90
2019,07,26,13,14,19.10
2019,07,26,13,15,19.20
2019,07,26,13,16,19.20
2019,07,26,13,17,19.30
2019,07,26,13,18,19.20
2019,07,26,13,19,19.10
2019,07,26,13,20,18.90
2019,07,26,13,21,18.80
2019,07,26,13,22,18.70
2019,07,26,13,23,18.70
2019,07,26,13,24,18.90
2019,07,26,13,25,18.90
2019,07,26,13,26,19.00
2019,07,26,13,27,19.20
2019,07,26,13,28,19.30
2019,07,26,13,29,19.40
2019,07,26,13,30,19.80
2019,07,26,13,31,20.20
2019,07,26,13,32,20.70
2019,07,26,13,33,21.20
2019,07,26,13,34,21.90
2019,07,26,13,35,22.50
2019,07,26,13,36,23.20
2019,07,26,13,37,23.80
2019,07,26,13,38,24.40
2019,07,26,13,39,24.90
2019,07,26,13,40,25.40
2019,07,26,13,41,25.70
2019,07,26,13,42,26.00
2019,07,26,13,43,26.30
2019,07,26,13,44,26.50
2019,07,26,13,45,26.70
2019,07,26,13,46,26.90
2019,07,26,13,47,27.10
2019,07,26,13,48,27.30
2019,07,26,13,49,27.40
2019,07,26,13,50,27.40
2019,07,26,13,51,27.40
2019,07,26,13,52,27.40
2019,07,26,13,53,27.40
2019,07,26,13,54,27.30
2019,07,26,13,55,27.30
2019,07,26,13,56,27.40
2019,07,26,13,57,27.60
2019,07,26,13,58,27.70
2019,07,26,13,59,27.80
2019,07,26,14,00,27.90
2019,07,26,14,01,28.00
2019,07,26,14,02,28.00
2019,07,26,14,03,28.00
2019,07,26,14,04,27.90
2019,07,26,14,05,27.90
2019,07,26,14,06,27.90
2019,07,26,14,07,27.90
2019,07,26,14,08,27.80
2019,07,26,14,09,27.80
2019,07,26,14,10,27.80
2019,07,26,14,11,27.70
2019,07,26,14,12,27.70
2019,07,26,14,13,27.70
2019,07,26,14,14,27.60
2019,07,26,14,15,27.60
2019,07,26,14,16,27.60
2019,07,26,14,17,27.70
2019,07,26,14,18,27.70
2019,07,26,14,19,27.80
2019,07,26,14,20,27.90
2019,07,26,14,21,28.00
2019,07,26,14,22,28.10
2019,07,26,14,23,28.10
2019,07,26,14,24,28.20
2019,07,26,14,25,28.30
2019,07,26,14,26,28.30
2019,07,26,14,27,28.30
2019,07,26,14,28,28.30
2019,07,26,14,29,28.40
2019,07,26,14,30,28.50
2019,07,26,14,31,28.60
2019,07,26,14,32,28.40
2019,07,26,14,33,28.50
2019,07,26,14,34,28.60
2019,07,26,14,35,28.70
2019,07,26,14,36,28.70
2019,07,26,14,37,28.70
2019,07,26,14,38,28.70
2019,07,26,14,39,28.70
2019,07,26,14,40,28.70
2019,07,26,14,41,28.70
2019,07,26,14,42,28.70
2019,07,26,14,43,28.70
2019,07,26,14,44,28.70
2019,07,26,14,45,28.80
2019,07,26,14,46,28.90
2019,07,26,14,47,28.90
2019,07,26,14,48,28.90
2019,07,26,14,49,28.90
2019,07,26,14,50,28.90
2019,07,26,14,51,28.90
2019,07,26,14,52,28.90
2019,07,26,14,53,28.80
2019,07,26,14,54,28.70
2019,07,26,14,55,28.60
2019,07,26,14,56,28.60
2019,07,26,14,57,28.60
2019,07,26,14,58,28.60
2019,07,26,14,59,28.60
2019,07,26,15,00,28.60
2019,07,26,15,01,28.60
2019,07,26,15,02,28.60
2019,07,26,15,03,28.80
2019,07,26,15,04,28.80
2019,07,26,15,05,28.80
2019,07,26,15,06,28.80
2019,07,26,15,07,28.80
2019,07,26,15,08,28.90
2019,07,26,15,09,28.90
2019,07,26,15,10,28.90
2019,07,26,15,11,28.90
2019,07,26,15,12,28.90
2019,07,26,15,13,28.90
2019,07,26,15,14,28.90
2019,07,26,15,15,28.90
2019,07,26,15,16,28.90
2019,07,26,15,17,28.90
2019,07,26,15,18,28.80
2019,07,26,15,19,28.70
2019,07,26,15,20,28.60
2019,07,26,15,21,28.60
2019,07,26,15,22,28.60
2019,07,26,15,23,28.60
2019,07,26,15,24,28.70
2019,07,26,15,25,28.70
2019,07,26,15,26,28.70
2019,07,26,15,27,28.70
2019,07,26,15,28,28.80
2019,07,26,15,29,28.90
2019,07,26,15,30,28.90
2019,07,26,15,31,28.90
2019,07,26,15,32,28.90
2019,07,26,15,33,28.90
2019,07,26,15,34,28.90
2019,07,26,15,35,29.10
2019,07,26,15,36,29.20
2019,07,26,15,37,29.20
2019,07,26,15,38,29.20
2019,07,26,15,39,29.30
2019,07,26,15,40,29.30
2019,07,26,15,41,29.30
2019,07,26,15,42,29.20
2019,07,26,15,43,29.20
2019,07,26,15,44,29.10
2019,07,26,15,45,29.10
2019,07,26,15,46,29.00
2019,07,26,15,47,28.90
2019,07,26,15,48,28.90
2019,07,26,15,49,28.90
2019,07,26,15,50,28.90
2019,07,26,15,51,28.90
2019,07,26,15,52,28.90
2019,07,26,15,53,28.90
2019,07,26,15,54,28.90
2019,07,26,15,55,28.90
2019,07,26,15,56,28.90
2019,07,26,15,57,28.90
2019,07,26,15,58,28.80
2019,07,26,15,59,28.80
2019,07,26,16,00,28.70
2019,07,26,16,01,28.70
2019,07,26,16,02,28.60
2019,07,26,16,03,28.70
2019,07,26,16,04,28.70
2019,07,26,16,05,28.70
2019,07,26,16,06,28.70
2019,07,26,16,07,28.70
2019,07,26,16,08,28.70
2019,07,26,16,09,28.80
2019,07,26,16,10,28.80
2019,07,26,16,11,28.80
2019,07,26,16,12,28.90
2019,07,26,16,13,28.90
2019,07,26,16,14,28.90
2019,07,26,16,15,28.90
2019,07,26,16,16,28.90
2019,07,26,16,17,28.90
2019,07,26,16,18,28.90
2019,07,26,16,19,29.00
2019,07,26,16,20,29.00
2019,07,26,16,21,28.90
2019,07,26,16,22,28.90
2019,07,26,16,23,28.90
2019,07,26,16,24,28.80
2019,07,26,16,25,28.80
2019,07,26,16,26,28.80
2019,07,26,16,27,28.60
2019,07,26,16,28,28.60
2019,07,26,16,29,28.60
2019,07,26,16,30,28.60
2019,07,26,16,31,28.60
2019,07,26,16,32,28.60
2019,07,26,16,33,28.60
2019,07,26,16,34,28.60
2019,07,26,16,35,28.60
2019,07,26,16,36,28.60
2019,07,26,16,37,28.60
2019,07,26,16,38,28.60
2019,07,26,16,39,28.60
2019,07,26,16,40,28.60
2019,07,26,16,41,28.60
2019,07,26,16,42,28.60
2019,07,26,16,43,28.60
2019,07,26,16,44,28.60
2019,07,26,16,45,28.70
2019,07,26,16,46,28.70
2019,07,26,16,47,28.60
2019,07,26,16,48,28.60
2019,07,26,16,49,28.60
2019,07,26,16,50,28.60
2019,07,26,16,51,28.70
2019,07,26,16,52,28.70
2019,07,26,16,53,28.70
2019,07,26,16,54,28.70
2019,07,26,16,55,28.60
2019,07,26,16,56,28.60
2019,07,26,16,57,28.50
2019,07,26,16,58,28.40
2019,07,26,16,59,28.40
2019,07,26,17,00,28.40
2019,07,26,17,01,28.30
2019,07,26,17,02,28.30
2019,07,26,17,03,28.20
2019,07,26,17,04,28.10
2019,07,26,17,05,28.10
2019,07,26,17,06,28.10
2019,07,26,17,07,28.10
2019,07,26,17,08,28.00
2019,07,26,17,09,28.00
2019,07,26,17,10,27.90
2019,07,26,17,11,27.70
2019,07,26,17,12,27.70
2019,07,26,17,13,27.60
2019,07,26,17,14,27.50
2019,07,26,17,15,27.40
2019,07,26,17,16,27.40
2019,07,26,17,17,27.40
2019,07,26,17,18,27.40
2019,07,26,17,19,27.40